C/2002 VQ94 ( LINEAR )

Japanese version
Home page
Total 6,336 html files since Dec. 4, 1995
Updated on July 17, 2008

---------------------------------------------------------------------

* Profile

Discovery Date November 11, 2002
Magnitude 18.7 mag
Discoverer Lincoln Laboratory Near-Earth Asteroid Research project

* Pictures

* Orbital Elements

The following orbital elements are taken from MPC 59874:

Epoch 2006 Jan. 25.0 TT = JDT 2453760.5
T 2006 Feb. 6.6524 TT                                   MPC
q   6.796620             (2000.0)            P               Q
z  +0.004872       Peri.  100.0371      -0.3312032      -0.7730938
 +/-0.000000       Node    35.0166      -0.2142201      -0.4967306
e   0.966884       Incl.   70.5157      +0.9189201      -0.3944422
From 912 observations 2001 Oct. 27-2007 May 30, mean residual 0".5.

* Finding Charts

* Magnitudes Graph

        m1 = 4.0 + 5 log d + 10.0 log r(t - 200)

---------------------------------------------------------------------

The orbital elements are published at the MPC Ephemerides and Orbital Elements.
The charts are made with StellaNavigator Ver.2.0 for Windows (AstroArts / ASCII).
The magnitudes graphs are made with Comet for Windows.

---------------------------------------------------------------------

Copyright(C) 1995-2008 Seiichi Yoshida (comet@aerith.net). All rights reserved.